Other Public Products
Issued by NWS Grand Forks, ND

Home | Current Version | Previous Version | Graphics & Text | Print | Product List | Glossary On
Versions: 1 2 3 4 5 6 7 8 9 10 11 12 13 14 15 16 17 18 19 20 21 22 23 24 25 26 27 28 29 30 31 32 33 34 35 36 37 38 39 40 41 42 43 44 45 46 47 48 49 50
000
FPUS83 KFGF 280731
OPUFGF
PRAIRIE TO PINES WEATHER ROUNDUP
NATIONAL WEATHER SERVICE EASTERN NORTH DAKOTA/GRAND FORKS ND
200 AM CDT THU APR 28 2016

 **SATELLITE DATA USED TO AUGMENT SKY COVER AT AUTOMATED STATIONS**
 *****  WEATHER ACROSS EASTERN NORTH DAKOTA  *****

CITY           SKY/WX    TMP DP  RH WIND       PRES   REMARKS
GRAND FORKS    MOCLDY    44  24  45 NE10      30.04R
GRAND FORKS AF CLOUDY    44  22  41 E9        30.04S
GRAND CITY NWS NOT AVBL
BUXTON           N/A     41  29  62 NE7         N/A
DEVILS LAKE    CLOUDY    43  22  43 NE13      30.05S
FARGO          CLOUDY    46  23  40 NE5       30.00S
WAHPETON ARPT  CLOUDY    39  30  70 NE7       29.97S
$$

 *****  WEATHER ACROSS CENTRAL AND WESTERN NORTH DAKOTA  *****

CITY           SKY/WX    TMP DP  RH WIND       PRES   REMARKS
JAMESTOWN      CLOUDY    39  35  86 CALM      29.99S
BISMARCK       CLOUDY    41  36  82 W3        30.00S
MINOT          MOCLDY    41  25  53 N9        30.06S
MINOT AFB      CLOUDY    40  23  51 NE9       30.06F
GARRISON         N/A     42  28  57 NE8       30.02S
WILLISTON      CLOUDY    43  25  49 E9        30.08S
DICKINSON      CLOUDY    37  28  70 NE8       29.98R
HETTINGER      LGT SNOW  33  31  92 N3        30.00S FOG
$$

 *****  OTHER OBSERVATIONS NORTHEAST NORTH DAKOTA  *****

CITY           SKY/WX    TMP DP  RH WIND       PRES   REMARKS
WALHALLA       FAIR      37  28  70 NW6       30.11S
LANGDON        FAIR      39  23  52 MISG      30.08S
CAVALIER       FAIR      41  25  52 NE9       30.09F
GRAFTON        FAIR      41  23  48 NE13G18   30.08S
CANDO          FAIR      37  25  60 NE10      30.09S
FORT TOTTEN      N/A     43  24  47 E7        29.95S
ROLLA          FAIR      37  21  52 NE12      30.10S
RUGBY          FAIR      39  25  56 NE15      30.06S
 ***** THE ABOVE OBSERVATIONS ARE NON NWS ARE NOT QUALITY
        CONTROLLED AND MAY MIS-REPORT RAIN FOR SNOW...
$$

 *****  OTHER OBSERVATIONS SOUTHEAST NORTH DAKOTA *****

CITY           SKY/WX    TMP DP  RH WIND       PRES   REMARKS
COOPERSTOWN    NOT AVBL
VALLEY CITY    CLOUDY    39  37  93 CALM      30.02S
OAKES            N/A    N/A N/A N/A MISG        N/A
GWINNER        CLOUDY    39  36  87 NE13      29.98R
SHEYENNE NWR     N/A     39  35  84 NE13      29.95S
BUFFALO          N/A     41  30  63 CALM        N/A
WYNDMERE       NOT AVBL
 ***** THE ABOVE OBSERVATIONS ARE NON NWS ARE NOT QUALITY
       CONTROLLED AND MAY MIS-REPORT RAIN FOR SNOW...
$$

  *****  WEATHER ACROSS NORTHERN MINNESOTA  *****

CITY           SKY/WX    TMP DP  RH WIND       PRES   REMARKS
FLAG ISLAND    CLOUDY    41  18  38 NE10      30.11S
WARROAD        PTCLDY    39  25  56 NE12      30.10S
ROSEAU         CLOUDY    37  27  65 NE8       30.10R
HALLOCK        CLOUDY    45  16  31 NE12      30.08S
THF RVR FALLS  CLOUDY    41  18  38 NE10      30.05S
HALSTAD        NOT AVBL
FOSSTON        CLOUDY    39  27  60 NE5       30.02S
BAUDETTE       CLOUDY    39  14  36 NE8       30.08S
WASKISH        CLOUDY    39  19  45 NE6       30.05S
CROOKSTON      MOCLDY    43  23  45 E8        30.04S
$$
  *****  WEATHER ACROSS CENTRAL AND WEST MINNESOTA  *****

CITY           SKY/WX    TMP DP  RH WIND       PRES   REMARKS
BEMIDJI        CLOUDY    41  23  49 E6        30.02S
PARK RAPIDS    CLOUDY    45  12  26 E12       29.97S
WADENA         CLOUDY    43  14  31 NE10G17   29.94F
DETROIT LAKES  CLOUDY    46  16  29 E6        29.99R
MOORHEAD       CLOUDY    46  18  31 NE5       29.99F
FERGUS FALLS   CLOUDY    39  27  60 NE5       29.94S
ELBOW LAKE     LGT RAIN  39  27  62 NE7       29.96R
MORRIS MN      DRIZZLE   37  30  75 NE10      29.91F
STAPLES        CLOUDY    43   7  22 NE9       29.94F
WHEATON        CLOUDY    39  34  81 NE8       29.96F
$$
  *****  WEATHER ELSEWHERE ACROSS MINNESOTA  *****

CITY           SKY/WX    TMP DP  RH WIND       PRES   REMARKS
DULUTH         CLOUDY    38  14  37 E17G26    30.02R
INTRNTL FALLS  CLOUDY    41  17  38 E9        30.08F
ELY            CLOUDY    36  18  48 NE5       30.06R
CLOQUET        CLOUDY    37  19  48 E16       30.00F
BRAINERD       CLOUDY    42  10  27 E13G21    29.97S
HIBBING        CLOUDY    35  10  35 E3        30.04R
ALEXANDRIA     CLOUDY    39  22  50 E9        29.94R
SAINT CLOUD    LGT RAIN  37  28  70 NE8       29.92S
MINNEAPOLIS    CLOUDY    41  34  76 NE18G25   29.89S
$$

  *****  WEATHER ACROSS SOUTH DAKOTA  *****

CITY           SKY/WX    TMP DP  RH WIND       PRES   REMARKS
SIOUX FALLS    LGT RAIN  41  39  93 NE14      29.76F
BROOKINGS      LGT RAIN  39  37  92 E14G23    29.81R
WATERTOWN      CLOUDY    38  32  79 NE15      29.85F
HURON          CLOUDY    41  39  93 NE12      29.86S
SISSETON         N/A     38  31  76 E14       29.93R
ABERDEEN       CLOUDY    35  33  92 N15       29.95R
MITCHELL       LGT RAIN  42  41  96 N12       29.83R FOG
PIERRE         CLOUDY    37  35  92 NE15      29.89S
MOBRIDGE       LGT RAIN  38  36  92 NE12      29.92S
RAPID CITY     MIX PCPN  32  31  96 N16       29.94S WCI  21
$$

  *****  SOME WEATHER IN NEARBY STATES *****

CITY           SKY/WX    TMP DP  RH WIND       PRES   REMARKS
GLASGOW MT     CLOUDY    38  37  97 W6        30.09R
GREAT FALLS MT LGT SNOW  33  32  96 NE12      30.06S FOG     WCI  24
CHEYENNE WY    MOCLDY    29  26  89 N17       29.89F WCI  17
SCOTTSBLUFF NE CLOUDY    33  28  81 N6        29.94R
OMAHA NE       LGT RAIN  47  44  90 S6        29.65R FOG
DES MOINES IA  PTCLDY    47  40  76 S7        29.65F
DAVENPORT IA   CLOUDY    47  45  93 E17G24    29.69F
CHICAGO IL     LGT RAIN  44  42  93 NE12      29.82F FOG
EAU CLAIRE WI  LGT RAIN  41  36  82 NE5       29.91F
LA CROSSE WI   CLOUDY    43  31  62 E7        29.86F
$$

  *****  SOME NATIONAL WEATHER *****

CITY           SKY/WX    TMP DP  RH WIND       PRES   REMARKS
LA GUARDIA NY  PTCLDY    54  45  71 N5        29.92R
RALEIGH NC     CLOUDY    67  65  93 CALM      29.89R
ATLANTA GA     MOCLDY    67  62  84 S6        29.88F
NEW ORLEANS LA CLOUDY    77  73  87 S8        29.81S
OKLAHOMA CITY  PTCLDY    55  45  68 NE6       29.83R
ALBUQUERQUE NM CLOUDY   N/A N/A N/A SW5       29.80R
SALT LAKE CITY CLOUDY    48  44  86 SE6       29.71F
LOS ANGELES CA PTCLDY    58  45  62 W14       29.74S
BOISE ID       MOCLDY    50  41  71 NW10      29.79S
SEATTLE WA     CLOUDY    54  47  77 CALM      30.06S
$$

*** WEATHER ACROSS MANITOBA...SASKATCHEWAN AND ONTARIO ***
                ***ONTARIO***

CITY           SKY/WX    TMP DP  RH WIND       PRES   REMARKS
GERALDTON      PTCLDY    30  19  64 NE6       30.16F WCI  24
THUNDER BAY    CLEAR     28  21  74 CALM      30.13F
SIOUX LOOKOUT  PTCLDY    34  12  40 NE3       30.17S
TORONTO        PTCLDY    36  18  48 N6        30.02S
BIG TROUT LK   CLOUDY    30  12  47 N7        30.25F WCI  23
PICKLE LAKE    NOT AVBL
DRYDEN         CLEAR     34  14  44 E9        30.15S
KENORA         MOCLDY    37  12  35 NE9       30.14F
$$
                *** MANITOBA***

CITY           SKY/WX    TMP DP  RH WIND       PRES   REMARKS
BRANDON        PTCLDY    39  19  45 NE15      30.16S
DAUPHIN        CLEAR     28  21  74 W2        30.23R
ISLAND LAKE    CLEAR     30  12  47 NE3       30.32F
PILOT MOUND      N/A     39  21  48 NE10        N/A
THE PAS        CLEAR     32  19  59 CALM      30.28S
THOMPSON       PTCLDY    34  18  51 VRB2      30.35S
WINNIPEG       MOCLDY    36  21  55 NE9       30.16R
LYNN LAKE      CLOUDY    41  23  48 SE8       30.26R
CHURCHILL      MOCLDY    23  19  86 NE3       30.47F
GILLAM         CLOUDY    27  14  59 E5        30.40F WCI  21
$$
                ***SASKATCHEWAN***

CITY           SKY/WX    TMP DP  RH WIND       PRES   REMARKS
ESTEVAN        MOCLDY    36  21  55 NE10      30.12S
KINDERSLEY     PTCLDY    41  37  87 N3        30.15S
LLOYDMINSTER   CLEAR     41  32  70 E5        30.14R
PRINCE ALBERT  PTCLDY    34  21  60 NE6       30.20R
REGINA         MOCLDY    43  21  42 E13       30.17R
YORKTON        CLEAR     36  23  60 E7        30.21R   C1F1C2F2C3F3C4F4C5F5C6F6C7F7C8F8C9F9CaFaCbFbCcFcCdFdCe!



USA.gov is the U.S. government's official web portal to all federal, state and local government web resources and services.